Wind_Speed
14 12 12 12 12 12 12 12 11 12 11 12 12 12 12 11 10 8 6 7 5 4 2 2 2 3 3 4 5 5 6 3 2 2 7 5 5 4 7 10 12 11 9
17 15 14 14 13 13 12 12 13 13 14 14 15 14 14 14 12 10 10 8 7 5 3 2 1 1 2 2 2 2 3 0 1 4 11 8 7 7 7 4 8 9 7
21 18 16 16 15 13 12 11 11 12 14 16 16 15 16 14 12 10 9 8 6 6 5 4 3 1 1 1 0 1 3 2 1 2 6 6 4 10 8 4 1 1 3
22 19 18 16 15 13 10 10 10 10 13 16 16 16 17 15 13 11 10 7 6 5 4 2 3 3 2 2 1 1 2 2 2 4 4 6 6 5 10 5 2 5 6
27 23 19 18 15 12 10 10 11 12 13 14 15 15 15 14 13 12 10 8 7 5 5 2 1 0 2 2 1 1 1 1 2 3 4 5 6 7 8 10 12 7 7
28 24 22 17 16 14 13 13 12 13 13 14 14 14 14 14 13 12 11 9 7 5 3 3 2 1 1 2 3 3 4 4 2 2 2 2 2 3 5 8 11 9 3
29 27 22 18 17 17 16 15 14 14 14 14 15 15 14 14 13 12 10 8 6 5 4 4 4 5 4 4 4 4 4 4 3 3 2 2 1 2 4 6 8 11 9
30 25 21 20 18 18 18 16 15 16 16 15 15 15 14 13 12 10 9 8 7 6 6 5 5 4 4 3 3 2 2 2 2 2 2 3 3 4 5 7 9 9 6
31 26 24 22 20 19 19 18 18 17 17 16 15 14 14 12 11 10 9 8 8 6 5 4 3 2 2 2 2 2 3 3 4 4 5 5 5 7 7 7 9 10 8
30 28 24 22 22 21 20 20 19 18 17 16 15 14 13 12 11 10 9 7 6 4 2 1 1 2 3 4 5 5 5 6 7 8 8 9 9 9 10 10 10 10 11
33 28 25 23 22 21 20 20 19 19 18 17 16 15 14 12 10 8 7 5 3 1 1 2 3 4 5 5 6 6 7 7 8 9 9 10 10 10 11 11 11 11 13
32 29 26 24 23 22 22 21 20 19 18 17 15 14 12 10 8 6 4 2 1 1 2 3 4 4 5 6 6 7 8 9 9 10 11 11 11 12 12 12 13 13 13
31 29 26 25 24 23 23 21 20 18 17 15 14 12 10 7 5 3 2 0 1 1 3 4 5 6 7 7 8 9 10 11 12 13 13 14 14 14 14 14 15 15 16
33 31 27 26 26 24 21 20 19 17 15 13 11 9 7 5 3 2 1 0 1 3 4 6 7 8 9 9 10 11 12 13 14 15 15 15 16 17 17 18 18 18 19
34 32 32 30 26 24 22 20 18 16 14 11 9 6 4 3 3 2 0 1 3 5 6 8 9 9 11 12 13 14 15 16 17 18 18 18 18 19 20 21 21 20 22
32 30 29 27 26 24 22 19 17 14 11 9 7 5 4 3 2 1 2 4 6 7 8 10 11 12 13 14 16 18 19 19 20 21 22 23 22 21 22 22 21 20 22
34 32 28 26 24 22 20 17 15 12 9 6 4 3 3 2 2 3 5 7 9 10 12 13 15 15 16 17 18 20 21 23 23 24 25 25 24 24 25 25 25 25 24
34 32 31 28 25 22 19 15 12 8 6 6 5 4 3 2 4 6 8 10 12 14 16 17 19 20 19 20 21 22 23 26 26 26 26 27 27 26 28 28 27 26 24
32 31 29 28 27 22 17 13 10 9 7 6 4 2 2 4 7 9 11 13 15 17 18 19 20 22 21 22 22 22 24 28 29 28 27 27 27 26 26 25 27 29 28
36 35 31 26 22 19 15 11 10 9 6 4 2 3 5 7 9 11 13 15 17 18 19 20 21 22 24 23 23 22 24 28 29 28 28 26 23 23 24 27 30 32 31
35 30 26 22 19 15 14 12 9 7 4 2 2 5 7 9 11 13 14 16 17 18 19 20 21 22 22 22 21 19 21 25 29 30 30 30 25 25 26 26 30 32 31
31 26 24 20 17 15 12 10 7 4 2 2 5 7 9 10 12 13 14 15 16 17 18 19 20 20 21 21 19 19 21 23 27 29 30 32 28 27 28 29 30 30 30
28 24 20 19 16 13 10 8 4 2 3 4 6 7 9 10 11 12 13 14 15 15 17 18 19 20 21 22 21 20 20 20 23 26 27 26 27 26 28 32 33 31 35
25 22 20 17 15 11 7 4 1 1 3 4 5 7 7 8 10 10 11 12 13 15 17 21 24 25 26 26 24 24 29 28 28 29 29 31 29 28 30 27 27 29 27
24 20 17 14 11 7 5 2 1 1 3 3 5 6 7 8 9 10 12 12 15 15 20 20 21 23 23 23 22 23 24 25 26 27 29 27 25 26 25 25 27 28 26
21 17 14 11 9 6 4 4 4 4 4 5 6 7 8 10 11 13 14 11 10 11 13 15 16 19 19 20 23 23 24 24 24 24 22 28 29 27 24 20 16 14 23
Wind_Direction
194 188 184 183 187 187 191 192 202 204 201 203 200 203 209 196 202 206 224 218 240 240 233 188 147 168 189 209 217 231 246 244 251 106 115 89 116 68 83 94 97 89 85
196 194 192 196 201 205 207 211 220 224 222 216 209 205 208 196 193 185 192 208 224 227 217 187 165 189 202 192 173 175 256 209 81 131 137 145 128 69 65 99 121 103 105
198 196 195 201 205 211 215 221 229 235 233 214 205 203 204 199 190 185 192 192 200 202 212 222 212 216 242 262 168 196 242 264 231 156 172 175 164 127 133 175 179 344 55
204 200 198 201 206 211 215 221 226 219 209 203 200 197 198 193 185 178 175 178 173 185 183 205 237 251 264 306 292 219 243 243 203 185 193 183 159 179 150 165 192 286 316
198 195 196 204 200 200 199 197 194 196 195 192 190 190 191 185 176 168 169 164 160 161 156 179 193 269 293 307 298 80 109 118 143 138 195 211 202 211 232 254 259 270 306
181 188 195 195 190 185 182 181 183 181 179 179 180 181 178 174 172 167 167 163 162 160 146 172 176 147 156 123 95 81 85 89 85 97 129 164 210 229 234 259 285 307 352
176 183 186 183 179 174 171 172 169 165 167 170 169 169 168 166 164 163 164 159 156 154 146 138 130 127 114 104 89 74 68 74 71 57 46 35 2 301 299 302 313 321 330
176 184 180 173 172 169 167 166 163 162 161 162 162 162 162 164 165 163 160 157 152 146 138 130 118 106 97 87 82 54 31 32 22 17 350 338 325 319 315 313 316 321 313
171 174 174 177 173 169 167 168 165 162 160 160 162 161 161 159 157 154 150 148 143 137 129 122 109 90 64 14 356 344 326 322 318 312 308 306 305 301 302 302 304 309 307
160 164 172 171 169 169 170 170 168 167 162 160 158 157 154 151 148 146 144 141 136 130 123 98 8 345 332 324 320 318 313 309 305 305 303 303 303 302 298 296 293 288 283
155 161 168 172 172 169 166 164 163 163 159 157 154 152 150 149 149 148 146 144 142 141 321 323 324 324 324 325 323 321 318 315 313 312 312 312 311 310 305 302 299 293 286
159 165 172 172 168 165 164 164 162 161 158 157 155 154 151 150 151 152 153 155 185 295 316 325 330 334 337 337 332 327 323 319 315 314 313 313 313 311 308 306 303 298 295
159 165 172 168 165 166 167 165 161 161 160 158 155 154 154 156 158 161 173 202 334 347 348 345 341 338 335 331 326 321 317 315 313 312 312 312 309 308 306 305 301 299 292
158 166 164 166 171 169 165 162 161 160 159 157 156 156 157 160 165 168 161 33 357 345 339 335 333 331 328 326 324 320 318 316 314 313 313 312 310 308 307 304 301 296 293
163 169 171 173 169 163 161 160 159 157 156 155 156 159 161 158 151 145 143 322 323 324 326 327 327 327 326 323 318 317 315 313 312 311 310 310 308 306 305 303 301 296 293
157 170 174 169 164 161 159 158 157 155 153 153 153 153 153 162 173 264 312 316 317 318 319 318 318 320 321 320 319 317 313 312 311 309 307 307 306 303 300 296 292 287 291
163 171 168 163 158 157 156 153 150 147 145 147 152 165 178 203 265 299 308 311 312 313 313 315 314 315 316 316 315 313 306 306 306 305 303 301 301 302 299 295 289 286 285
166 163 159 155 153 150 146 146 149 152 164 178 182 186 210 267 294 303 305 306 307 310 313 314 313 312 312 311 309 307 300 300 300 301 301 300 300 300 298 295 289 286 284
160 153 151 153 155 156 150 143 158 166 173 177 184 208 264 293 299 303 308 311 311 312 312 312 311 311 310 310 308 305 299 298 302 303 300 299 301 302 299 292 297 300 298
155 156 158 158 155 148 144 155 166 168 171 179 212 267 288 300 306 308 310 310 309 310 310 311 312 312 312 309 306 307 306 303 304 302 300 298 293 292 291 288 289 288 291
153 155 153 152 146 142 158 161 161 166 173 210 285 303 306 307 307 308 310 310 309 309 310 310 312 313 315 315 314 311 306 305 310 311 309 306 296 290 287 283 280 282 287
152 152 149 140 144 151 154 157 164 163 195 283 298 302 305 309 308 309 310 312 313 313 313 314 314 315 317 320 316 312 305 302 297 297 297 296 295 291 288 285 281 281 280
147 142 140 148 146 148 153 156 152 199 273 294 306 311 312 313 312 315 318 317 316 316 319 328 335 337 338 335 329 315 313 309 306 306 309 303 300 296 291 281 281 285 280
137 142 144 143 141 141 148 155 178 289 312 317 318 322 329 326 329 331 332 330 333 337 347 345 339 337 334 332 333 335 330 327 316 312 308 310 304 298 295 294 286 289 289
139 140 142 138 135 138 138 133 86 1 351 356 355 352 345 342 343 346 345 343 344 345 335 328 328 325 327 332 326 321 319 318 316 311 309 313 323 316 315 308 301 301 295
138 141 138 135 134 132 117 90 68 50 37 20 8 359 358 356 345 338 339 339 327 324 320 318 317 317 315 318 319 317 316 317 317 312 317 313 311 307 305 310 307 324 282
Height
1533 1535 1536 1540 1543 1544 1546 1548 1550 1551 1553 1555 1557 1560 1562 1563 1564 1565 1570 1573 1574 1573 1573 1573 1572 1573 1574 1575 1576 1575 1575 1578 1578 1579 1582 1584 1585 1584 1583 1583 1584 1585 1585
1530 1532 1534 1537 1540 1541 1543 1546 1547 1548 1551 1553 1555 1557 1561 1562 1563 1562 1567 1571 1572 1572 1572 1572 1572 1573 1573 1574 1574 1574 1574 1575 1576 1578 1580 1584 1586 1584 1585 1585 1586 1585 1585
1526 1529 1531 1535 1536 1537 1540 1542 1544 1546 1548 1549 1552 1554 1558 1560 1561 1560 1565 1568 1570 1570 1571 1572 1572 1573 1573 1573 1572 1573 1573 1574 1576 1577 1579 1581 1581 1584 1585 1584 1585 1585 1585
1522 1525 1529 1530 1531 1535 1536 1539 1542 1544 1546 1547 1549 1551 1557 1558 1559 1560 1563 1566 1568 1569 1569 1570 1572 1572 1572 1573 1573 1573 1572 1573 1574 1576 1577 1577 1579 1580 1583 1582 1582 1584 1584
1517 1521 1524 1527 1529 1532 1534 1537 1542 1542 1544 1544 1547 1550 1555 1556 1557 1559 1562 1565 1567 1568 1568 1570 1570 1571 1571 1572 1572 1572 1572 1572 1573 1574 1575 1576 1577 1578 1580 1579 1581 1583 1583
1513 1518 1521 1525 1527 1530 1533 1537 1540 1540 1541 1543 1547 1550 1552 1554 1556 1558 1561 1564 1566 1567 1568 1569 1570 1570 1571 1571 1572 1572 1573 1573 1573 1574 1575 1576 1576 1577 1578 1579 1579 1580 1581
1509 1513 1519 1522 1526 1528 1531 1535 1537 1538 1541 1544 1546 1548 1551 1554 1556 1558 1561 1563 1565 1566 1567 1568 1570 1570 1571 1571 1571 1572 1573 1573 1574 1574 1574 1575 1576 1577 1577 1577 1577 1576 1577
1505 1512 1518 1521 1524 1526 1530 1533 1536 1538 1541 1543 1545 1547 1551 1553 1556 1558 1560 1563 1564 1566 1567 1569 1570 1570 1571 1571 1572 1573 1573 1574 1574 1574 1574 1574 1575 1575 1575 1575 1574 1573 1573
1501 1509 1515 1518 1522 1525 1528 1533 1536 1539 1541 1543 1546 1548 1551 1553 1555 1558 1560 1562 1564 1566 1567 1568 1569 1570 1570 1571 1571 1572 1573 1573 1573 1573 1573 1573 1573 1573 1573 1572 1571 1570 1570
1500 1508 1513 1516 1519 1523 1528 1532 1535 1538 1541 1544 1546 1549 1551 1554 1557 1559 1561 1563 1564 1565 1567 1568 1569 1569 1569 1570 1570 1571 1571 1571 1571 1571 1571 1570 1570 1570 1569 1569 1569 1568 1567
1498 1505 1511 1516 1519 1523 1527 1531 1535 1538 1541 1544 1547 1550 1552 1554 1557 1559 1561 1562 1564 1565 1566 1566 1567 1568 1568 1568 1568 1568 1569 1569 1569 1568 1568 1567 1567 1567 1566 1565 1565 1564 1564
1498 1505 1511 1515 1519 1523 1527 1531 1535 1538 1541 1545 1547 1550 1552 1555 1557 1559 1561 1562 1563 1564 1565 1566 1566 1567 1567 1567 1567 1567 1567 1567 1566 1566 1566 1565 1564 1564 1563 1562 1561 1560 1559
1499 1505 1510 1515 1519 1522 1526 1530 1534 1538 1542 1545 1547 1550 1552 1555 1557 1558 1560 1561 1562 1563 1563 1564 1565 1565 1565 1566 1565 1565 1565 1565 1564 1564 1563 1562 1561 1560 1559 1558 1557 1556 1554
1497 1503 1510 1514 1518 1522 1527 1531 1535 1539 1542 1545 1547 1550 1552 1554 1556 1557 1559 1560 1561 1562 1563 1563 1564 1564 1563 1563 1563 1562 1562 1562 1561 1560 1559 1558 1557 1556 1555 1553 1552 1551 1549
1495 1502 1507 1511 1517 1522 1526 1531 1536 1539 1542 1545 1547 1550 1552 1553 1555 1556 1558 1559 1559 1560 1561 1561 1562 1561 1561 1560 1560 1559 1559 1558 1557 1556 1555 1554 1553 1552 1550 1548 1547 1545 1544
1493 1501 1507 1512 1516 1521 1526 1531 1535 1539 1542 1544 1546 1548 1550 1552 1553 1555 1556 1557 1558 1558 1559 1559 1559 1559 1558 1557 1556 1555 1554 1553 1552 1551 1550 1549 1548 1547 1546 1544 1542 1542 1538
1490 1498 1506 1512 1517 1522 1527 1531 1535 1539 1541 1543 1545 1547 1549 1550 1552 1553 1554 1555 1555 1555 1556 1556 1556 1555 1555 1553 1552 1551 1548 1548 1547 1546 1545 1543 1543 1541 1539 1537 1535 1534 1533
1490 1498 1504 1511 1517 1522 1527 1531 1535 1537 1540 1543 1544 1546 1547 1549 1550 1551 1552 1552 1552 1552 1552 1552 1551 1551 1551 1549 1548 1546 1543 1541 1541 1540 1538 1536 1535 1535 1531 1528 1527 1526 1525
1492 1499 1506 1512 1517 1522 1526 1531 1535 1537 1540 1542 1543 1544 1546 1547 1548 1548 1549 1549 1548 1548 1548 1547 1546 1545 1545 1544 1542 1541 1538 1535 1534 1533 1532 1530 1528 1527 1525 1523 1521 1519 1518
1493 1499 1506 1513 1518 1522 1527 1531 1534 1536 1538 1540 1541 1542 1543 1544 1545 1545 1545 1545 1544 1544 1543 1542 1541 1540 1538 1538 1536 1535 1532 1529 1527 1526 1524 1524 1523 1523 1523 1521 1517 1513 1513
1495 1503 1509 1514 1518 1522 1527 1530 1532 1534 1537 1538 1539 1540 1540 1541 1541 1542 1542 1541 1540 1539 1538 1536 1536 1534 1533 1531 1531 1531 1529 1526 1522 1520 1518 1517 1517 1517 1516 1515 1512 1508 1507
1498 1505 1509 1514 1520 1524 1527 1529 1531 1534 1535 1536 1537 1537 1538 1538 1538 1538 1537 1536 1535 1534 1532 1531 1530 1529 1528 1527 1525 1525 1525 1523 1520 1516 1514 1511 1511 1509 1508 1506 1504 1502 1501
1499 1505 1510 1515 1520 1524 1526 1528 1530 1532 1533 1534 1534 1534 1535 1534 1534 1533 1532 1531 1530 1529 1528 1527 1526 1525 1523 1522 1520 1519 1518 1517 1515 1512 1508 1507 1505 1502 1499 1496 1495 1495 1492
1502 1507 1512 1516 1519 1523 1525 1527 1529 1530 1531 1531 1531 1532 1532 1531 1530 1529 1528 1527 1526 1525 1525 1524 1522 1520 1519 1517 1516 1513 1512 1509 1507 1505 1501 1499 1497 1495 1492 1489 1488 1486 1484
1505 1509 1513 1516 1519 1522 1524 1526 1527 1528 1528 1529 1529 1529 1528 1528 1527 1526 1525 1524 1524 1523 1523 1522 1521 1519 1517 1515 1514 1512 1509 1506 1503 1500 1496 1492 1489 1485 1483 1481 1480 1478 1476
1507 1510 1513 1516 1519 1521 1523 1524 1525 1526 1527 1527 1527 1526 1525 1524 1523 1523 1522 1522 1522 1522 1522 1521 1519 1517 1515 1513 1511 1508 1505 1502 1499 1493 1490 1488 1485 1483 1480 1477 1474 1471 1470